Location: Unnamed
(53.9021°N, 27.5568°E)
Time: 19:21:41
(UTC+03:00)

STARLINK-73 - Pass Details

Date: 26 January 2020
Orbit: 528 x 531 km, 53.0° (Epoch: 25 February)

Event Time Altitude Azimuth Distance (km) Brightness Sun altitude
Exits shadow 05:26:05 18° 103° (ESE) 1,338 6.2 -32.1°
Drops below altitude 10° 05:27:31 10° 88° (E) 1,781 7.1 -31.9°
Sets 05:29:58 0° 76° (ENE) 2,675 8.3 -31.6°
